• In Österreich
  • Länderverzeichnis
  • Für 7 Tage
  • Wassertemperatur
  • Satellitenkarten
  • Wetterkarte
  • News
  • Widgets
  • user-avatar
    Anmelden

    Stündliche Wetter Sidi Bu-l-Abbas

    Heute, 19 Oktober, Donnerstag

    Zeit Temperatur Niederschläge Wind Luftdruck Luftfeuchtigkeit
    00:00 +20°C° 0,1 mm 3 m/S 719 mmHg 62%
    01:00 +20°C° 0 mm 4 m/S 719 mmHg 61%
    02:00 +20°C° 0 mm 4 m/S 719 mmHg 60%
    03:00 +20°C° 0 mm 4 m/S 718 mmHg 59%
    04:00 +20°C° 0 mm 4 m/S 718 mmHg 58%
    05:00 +20°C° 0 mm 5 m/S 718 mmHg 58%
    06:00 +20°C° 0 mm 5 m/S 718 mmHg 58%
    07:00 +20°C° 0,8 mm 6 m/S 718 mmHg 59%
    08:00 +20°C° 0,8 mm 7 m/S 719 mmHg 61%
    09:00 +20°C° 0,8 mm 8 m/S 719 mmHg 62%
    10:00 +18°C° 2 mm 8 m/S 719 mmHg 66%
    11:00 +18°C° 2 mm 9 m/S 719 mmHg 69%
    12:00 +18°C° 2 mm 9 m/S 719 mmHg 72%
    13:00 +18°C° 1,2 mm 9 m/S 719 mmHg 72%
    14:00 +18°C° 1,2 mm 8 m/S 718 mmHg 72%
    15:00 +18°C° 1,2 mm 8 m/S 718 mmHg 72%
    16:00 +18°C° 0,3 mm 8 m/S 718 mmHg 73%
    17:00 +18°C° 0,3 mm 7 m/S 718 mmHg 74%
    18:00 +18°C° 0,3 mm 7 m/S 719 mmHg 74%
    19:00 +17°C° 0,5 mm 7 m/S 719 mmHg 76%
    20:00 +17°C° 0,5 mm 7 m/S 719 mmHg 77%
    21:00 +17°C° 0,5 mm 6 m/S 720 mmHg 79%
    22:00 +17°C° 0,6 mm 7 m/S 720 mmHg 79%
    23:00 +17°C° 0,6 mm 7 m/S 720 mmHg 80%

    Morgen, 20 Oktober, Freitag

    Zeit Temperatur Niederschläge Wind Luftdruck Luftfeuchtigkeit
    00:00 +17°C° 0,6 mm 8 m/S 720 mmHg 81%
    01:00 +17°C° 0,4 mm 7 m/S 720 mmHg 82%
    02:00 +17°C° 0,4 mm 7 m/S 720 mmHg 83%
    03:00 +16°C° 0,4 mm 7 m/S 720 mmHg 84%
    04:00 +16°C° 0,1 mm 6 m/S 721 mmHg 85%
    05:00 +16°C° 0,1 mm 6 m/S 721 mmHg 85%
    06:00 +16°C° 0,1 mm 6 m/S 721 mmHg 86%
    07:00 +17°C° 0,1 mm 6 m/S 721 mmHg 81%
    08:00 +19°C° 0,1 mm 6 m/S 722 mmHg 76%
    09:00 +20°C° 0,1 mm 7 m/S 723 mmHg 71%
    10:00 +20°C° 0,1 mm 7 m/S 723 mmHg 67%
    11:00 +21°C° 0,1 mm 7 m/S 723 mmHg 64%
    12:00 +22°C° 0,1 mm 6 m/S 723 mmHg 60%
    13:00 +22°C° 0 mm 6 m/S 723 mmHg 60%
    14:00 +22°C° 0 mm 6 m/S 723 mmHg 59%
    15:00 +22°C° 0 mm 5 m/S 723 mmHg 59%
    16:00 +21°C° 0 mm 4 m/S 723 mmHg 63%
    17:00 +20°C° 0 mm 3 m/S 723 mmHg 67%
    18:00 +20°C° 0 mm 2 m/S 724 mmHg 71%
    19:00 +19°C° 0 mm 2 m/S 724 mmHg 73%
    20:00 +20°C° 0 mm 1 m/S 725 mmHg 76%
    21:00 +20°C° 0 mm 1 m/S 725 mmHg 78%
    22:00 +19°C° 0 mm 1 m/S 725 mmHg 77%
    23:00 +19°C° 0 mm 1 m/S 725 mmHg 77%

    übermorgen, 21 Oktober, Samstag

    Zeit Temperatur Niederschläge Wind Luftdruck Luftfeuchtigkeit
    00:00 +17°C° 0 mm 0 m/S 725 mmHg 76%
    01:00 +16°C° 0 mm 0 m/S 725 mmHg 75%
    02:00 +16°C° 0 mm 0 m/S 724 mmHg 75%
    03:00 +16°C° 0 mm 0 m/S 724 mmHg 74%
    04:00 +16°C° 0 mm 0 m/S 724 mmHg 73%
    05:00 +15°C° 0 mm 0 m/S 724 mmHg 73%
    06:00 +16°C° 0 mm 1 m/S 725 mmHg 72%
    07:00 +19°C° 0 mm 1 m/S 725 mmHg 64%
    08:00 +20°C° 0 mm 1 m/S 726 mmHg 56%
    09:00 +22°C° 0 mm 1 m/S 726 mmHg 48%
    10:00 +23°C° 0 mm 1 m/S 726 mmHg 45%
    11:00 +24°C° 0 mm 1 m/S 726 mmHg 41%
    12:00 +25°C° 0 mm 1 m/S 726 mmHg 38%
    13:00 +25°C° 0 mm 2 m/S 726 mmHg 37%
    14:00 +25°C° 0 mm 2 m/S 725 mmHg 36%
    15:00 +26°C° 0 mm 3 m/S 725 mmHg 36%
    16:00 +25°C° 0 mm 3 m/S 725 mmHg 40%
    17:00 +24°C° 0 mm 2 m/S 725 mmHg 43%
    18:00 +23°C° 0 mm 2 m/S 725 mmHg 47%
    19:00 +23°C° 0 mm 2 m/S 725 mmHg 50%
    20:00 +22°C° 0 mm 1 m/S 725 mmHg 53%
    21:00 +21°C° 0 mm 1 m/S 726 mmHg 56%
    22:00 +21°C° 0 mm 1 m/S 726 mmHg 57%
    23:00 +21°C° 0 mm 1 m/S 725 mmHg 58%

    22 Oktober, Sonntag

    Zeit Temperatur Niederschläge Wind Luftdruck Luftfeuchtigkeit
    00:00 +20°C° 0 mm 1 m/S 725 mmHg 59%
    01:00 +18°C° 0 mm 0 m/S 725 mmHg 59%
    02:00 +17°C° 0 mm 0 m/S 725 mmHg 60%
    03:00 +17°C° 0 mm 0 m/S 725 mmHg 61%
    04:00 +17°C° 0 mm 0 m/S 725 mmHg 62%
    05:00 +17°C° 0 mm 0 m/S 725 mmHg 62%
    06:00 +16°C° 0 mm 0 m/S 725 mmHg 63%
    07:00 +20°C° 0 mm 1 m/S 725 mmHg 56%
    08:00 +22°C° 0 mm 1 m/S 726 mmHg 49%
    09:00 +23°C° 0 mm 1 m/S 726 mmHg 42%
    10:00 +24°C° 0 mm 1 m/S 726 mmHg 39%
    11:00 +25°C° 0 mm 2 m/S 726 mmHg 36%
    12:00 +26°C° 0 mm 2 m/S 726 mmHg 33%
    13:00 +26°C° 0 mm 3 m/S 726 mmHg 33%
    14:00 +26°C° 0 mm 4 m/S 726 mmHg 34%
    15:00 +26°C° 0 mm 5 m/S 725 mmHg 35%
    16:00 +25°C° 0 mm 4 m/S 725 mmHg 40%
    17:00 +23°C° 0 mm 4 m/S 726 mmHg 45%
    18:00 +22°C° 0 mm 4 m/S 726 mmHg 50%
    19:00 +22°C° 0 mm 3 m/S 726 mmHg 54%
    20:00 +21°C° 0 mm 3 m/S 726 mmHg 58%
    21:00 +20°C° 0 mm 2 m/S 726 mmHg 61%
    22:00 +20°C° 0 mm 2 m/S 726 mmHg 64%
    23:00 +19°C° 0 mm 2 m/S 726 mmHg 66%

    23 Oktober, Montag

    Zeit Temperatur Niederschläge Wind Luftdruck Luftfeuchtigkeit
    00:00 +20°C° 0 mm 1 m/S 726 mmHg 68%
    01:00 +20°C° 0 mm 1 m/S 726 mmHg 69%
    02:00 +19°C° 0 mm 1 m/S 725 mmHg 70%
    03:00 +19°C° 0 mm 1 m/S 725 mmHg 71%
    04:00 +19°C° 0 mm 1 m/S 725 mmHg 71%
    05:00 +18°C° 0 mm 1 m/S 725 mmHg 71%
    06:00 +18°C° 0 mm 1 m/S 725 mmHg 71%
    07:00 +20°C° 0 mm 1 m/S 726 mmHg 64%
    08:00 +21°C° 0 mm 1 m/S 726 mmHg 58%
    09:00 +23°C° 0 mm 2 m/S 726 mmHg 51%
    10:00 +24°C° 0 mm 2 m/S 726 mmHg 46%
    11:00 +25°C° 0 mm 2 m/S 726 mmHg 42%
    12:00 +26°C° 0 mm 2 m/S 726 mmHg 37%
    13:00 +26°C° 0 mm 3 m/S 726 mmHg 37%
    14:00 +26°C° 0 mm 3 m/S 725 mmHg 37%
    15:00 +26°C° 0 mm 4 m/S 725 mmHg 37%
    16:00 +25°C° 0 mm 4 m/S 725 mmHg 42%
    17:00 +24°C° 0 mm 3 m/S 725 mmHg 47%
    18:00 +22°C° 0 mm 3 m/S 725 mmHg 52%
    19:00 +22°C° 0 mm 3 m/S 725 mmHg 55%
    20:00 +21°C° 0 mm 2 m/S 725 mmHg 59%
    21:00 +20°C° 0 mm 2 m/S 726 mmHg 62%
    22:00 +21°C° 0 mm 1 m/S 725 mmHg 63%
    23:00 +20°C° 0 mm 1 m/S 725 mmHg 65%

    24 Oktober, Dienstag

    Zeit Temperatur Niederschläge Wind Luftdruck Luftfeuchtigkeit
    00:00 +20°C° 0 mm 1 m/S 725 mmHg 66%
    01:00 +20°C° 0 mm 1 m/S 725 mmHg 67%
    02:00 +19°C° 0 mm 1 m/S 725 mmHg 67%
    03:00 +19°C° 0 mm 1 m/S 724 mmHg 67%
    04:00 +19°C° 0 mm 1 m/S 724 mmHg 67%
    05:00 +18°C° 0 mm 1 m/S 724 mmHg 68%
    06:00 +18°C° 0 mm 1 m/S 724 mmHg 68%
    07:00 +20°C° 0 mm 1 m/S 725 mmHg 61%
    08:00 +21°C° 0 mm 1 m/S 725 mmHg 54%
    09:00 +23°C° 0 mm 1 m/S 726 mmHg 47%
    10:00 +24°C° 0 mm 1 m/S 725 mmHg 43%
    11:00 +25°C° 0 mm 2 m/S 725 mmHg 40%
    12:00 +26°C° 0 mm 2 m/S 725 mmHg 36%
    13:00 +26°C° 0 mm 3 m/S 725 mmHg 35%
    14:00 +26°C° 0 mm 3 m/S 724 mmHg 35%
    15:00 +26°C° 0 mm 4 m/S 724 mmHg 34%
    16:00 +25°C° 0 mm 3 m/S 724 mmHg 39%
    17:00 +24°C° 0 mm 3 m/S 724 mmHg 43%
    18:00 +22°C° 0 mm 3 m/S 724 mmHg 48%
    19:00 +23°C° 0 mm 2 m/S 724 mmHg 51%
    20:00 +21°C° 0 mm 2 m/S 724 mmHg 55%
    21:00 +21°C° 0 mm 1 m/S 725 mmHg 58%
    22:00 +21°C° 0 mm 1 m/S 724 mmHg 59%
    23:00 +20°C° 0 mm 1 m/S 724 mmHg 60%
    Mehr zeigen